Weather History for EGOS - January, 2014

Change the Weather History Date:

Monday, January 27, 2014

  Actual Average Record
Temperature  
Mean Temperature 40 °F -  
Max Temperature 45 °F 44 °F 53 °F (2002)
Min Temperature 35 °F 33 °F 26 °F (2001)
Degree Days  
Heating Degree Days 25    
Moisture  
Dew Point 36 °F    
Average Humidity 80    
Maximum Humidity 93    
Minimum Humidity 65    
Precipitation  
Precipitation 0.01 in - - ()
Sea Level Pressure  
Sea Level Pressure 29.07 in    
Wind  
Wind Speed 12 mph ()    
Max Wind Speed 20 mph    
Max Gust Speed -    
Visibility 10.0 miles    
Events Rain    
Averages and records for this station are not official NWS values.
T = Trace of Precipitation, MM = Missing Value Source: Averaged Metar Reports

Daily Weather History Graph

Daily Weather History Graph

Search for Another Location

Airport or City:

Trip Planner

Search our weather history database for the weather conditions in past years. The results will help you decide how hot, cold, wet, or windy it might be!

Date:

Astronomy

Jan. 27, 2014 Rise Set
Actual Time 8:01 AM GMT 4:46 PM GMT
Civil Twilight 7:22 AM GMT 5:24 PM GMT
Nautical Twilight 6:41 AM GMT 6:06 PM GMT
Astronomical Twilight 6:00 AM GMT 6:46 PM GMT
Moon 4:33 AM GMT (1/27) 1:11 PM GMT (1/27)
Length of Visible Light 10h 01m
Length of Day
8h 45m
Waning Crescent, 16% of the Moon is Illuminated
Jan 27
Waning Crescent
Jan 30
New
Feb 6
First Quarter
Feb 14
Full
Feb 22
Last Quarter

Hourly Weather History & Observations

Time (GMT) Temp. Windchill Dew Point Humidity Pressure Visibility Wind Dir Wind Speed Gust Speed Precip Events Conditions
12:00 AM 37 °F - 32 °F 74% 29.21 in 14 mi West 9.2 mph - - Rain Rain
12:50 AM 37.4 °F 31.4 °F 30.2 °F 75% 29.18 in 6.2 mi SW 8.1 mph - N/A   Partly Cloudy
1:00 AM 37 °F - 30 °F 69% 29.19 in 16 mi SW 8.1 mph - -   Scattered Clouds
1:50 AM 35.6 °F 26.6 °F 32.0 °F 87% 29.15 in 6.2 mi SSW 13.8 mph - N/A   Mostly Cloudy
2:00 AM 36 °F - 32 °F 81% 29.17 in 12 mi SSW 13.8 mph - - Rain Rain
2:50 AM 37.4 °F 28.5 °F 33.8 °F 87% 29.12 in 6.2 mi SSW 15.0 mph - N/A Rain Light Rain Showers
3:00 AM 37 °F - 33 °F 82% 29.15 in 7 mi SSW 15.0 mph - - Rain Light Rain Showers
3:50 AM 37.4 °F 28.9 °F 33.8 °F 87% 29.09 in 6.2 mi South 13.8 mph - N/A Rain Light Rain
4:00 AM 36 °F - 34 °F 89% 29.12 in 9 mi South 13.8 mph - - Rain Light Rain
4:50 AM 37.4 °F 28.2 °F 33.8 °F 87% 29.09 in 6.2 mi SW 16.1 mph - N/A   Mostly Cloudy
5:00 AM 37 °F - 35 °F 87% 29.11 in 18 mi SW 16.1 mph - -   Unknown Precipitation
5:50 AM 37.4 °F 30.8 °F 35.6 °F 93% 29.09 in 6.2 mi SSW 9.2 mph - N/A   Mostly Cloudy
6:00 AM 38 °F - 35 °F 86% 29.11 in 22 mi SSW 9.2 mph - - Rain Rain
6:50 AM 41.0 °F 34.3 °F 35.6 °F 81% 29.06 in 6.2 mi SW 11.5 mph - N/A   Mostly Cloudy
7:00 AM 40 °F - 36 °F 82% 29.09 in 19 mi SW 11.5 mph - -   Partly Cloudy
7:50 AM 41.0 °F 33.1 °F 37.4 °F 87% 29.06 in 6.2 mi WSW 15.0 mph - N/A   Mostly Cloudy
8:00 AM 40 °F - 37 °F 83% 29.09 in 9 mi WSW 15.0 mph - - Rain Light Rain Showers
8:50 AM 41.0 °F 33.1 °F 37.4 °F 87% 29.06 in 6.2 mi SW 15.0 mph - N/A   Mostly Cloudy
9:00 AM 42 °F - 36 °F 74% 29.09 in 22 mi SW 15.0 mph - - Rain Light Rain Showers
9:50 AM 42.8 °F 35.8 °F 37.4 °F 81% 29.06 in 6.2 mi SW 13.8 mph - N/A   Scattered Clouds
10:00 AM 42 °F - 37 °F 78% 29.08 in 19 mi SW 13.8 mph - - Rain Light Rain Showers
10:50 AM 42.8 °F 34.5 °F 37.4 °F 81% 29.06 in 6.2 mi WSW 18.4 mph - N/A   Mostly Cloudy
11:00 AM 43 °F - 37 °F 71% 29.08 in 22 mi WSW 18.4 mph - -   Mostly Cloudy
11:50 AM 44.6 °F 37.8 °F 39.2 °F 81% 29.06 in 6.2 mi SW 15.0 mph - N/A   Scattered Clouds
12:00 PM 44 °F - 38 °F 74% 29.08 in 19 mi SW 15.0 mph - - Rain Light Rain Showers
12:50 PM 44.6 °F 36.6 °F 35.6 °F 71% 29.06 in 6.2 mi WSW 19.6 mph - N/A Rain Light Rain Showers
1:00 PM 44 °F - 36 °F 65% 29.08 in 14 mi WSW 19.6 mph - - Rain Light Rain Showers
1:50 PM 42.8 °F 35.8 °F 35.6 °F 76% 29.06 in 6.2 mi West 13.8 mph - N/A   Mostly Cloudy
2:00 PM 44 °F - 36 °F 66% 29.07 in 22 mi West 13.8 mph - - Rain Light Rain Showers
2:50 PM 44.6 °F 37.4 °F 37.4 °F 76% 29.03 in 6.2 mi WSW 16.1 mph - N/A   Mostly Cloudy
3:00 PM 44 °F - 37 °F 67% 29.06 in 19 mi WSW 16.1 mph - - Rain Light Rain Showers
3:50 PM 44.6 °F 39.7 °F 37.4 °F 76% 29.03 in 6.2 mi South 9.2 mph - N/A   Mostly Cloudy
4:00 PM 44 °F - 37 °F 67% 29.05 in 19 mi South 9.2 mph - - Rain Light Rain Showers
4:50 PM 42.8 °F 35.4 °F 35.6 °F 76% 29.03 in 6.2 mi SSW 15.0 mph - N/A   Mostly Cloudy
5:00 PM 44 °F - 36 °F 65% 29.05 in 19 mi SSW 15.0 mph - -   Mostly Cloudy
5:50 PM 42.8 °F 36.2 °F 37.4 °F 81% 29.03 in 6.2 mi SW 12.7 mph - N/A Rain Light Rain Showers
6:00 PM 42 °F - 38 °F 79% 29.04 in 9 mi SW 12.7 mph - - Rain Light Rain Showers
6:50 PM 41.0 °F 32.8 °F 35.6 °F 81% 29.03 in 6.2 mi SSW 16.1 mph - N/A   Mostly Cloudy
7:00 PM 41 °F - 36 °F 77% 29.04 in 16 mi SSW 16.1 mph - - Rain Light Rain Showers
7:28 PM 41.0 °F 33.1 °F 37.4 °F 87% 29.00 in 6.2 mi South 15.0 mph - N/A Rain Light Rain Showers
7:50 PM 41.0 °F 34.3 °F 37.4 °F 87% 29.00 in 6.2 mi South 11.5 mph - N/A   Mostly Cloudy
8:00 PM 42 °F - 37 °F 78% 29.03 in 12 mi South 11.5 mph - - Rain Light Rain Showers
8:50 PM 41.0 °F 34.7 °F 37.4 °F 87% 29.00 in 6.2 mi SSE 10.4 mph - N/A   Mostly Cloudy
9:00 PM 42 °F - 37 °F 78% 29.01 in 19 mi SSE 10.4 mph - -   Partly Cloudy
9:50 PM 42.8 °F 36.2 °F 37.4 °F 81% 28.97 in 6.2 mi South 12.7 mph - N/A Rain Light Rain Showers
10:00 PM 42 °F - 38 °F 79% 29.00 in 9 mi South 12.7 mph - - Rain Light Rain Showers
10:50 PM 42.8 °F 36.6 °F 39.2 °F 87% 28.97 in 6.2 mi South 11.5 mph - N/A Rain Light Rain Showers
11:00 PM 43 °F - 39 °F 79% 28.99 in 17 mi South 11.5 mph - - Rain Light Rain Showers
11:50 PM 41.0 °F 35.2 °F 39.2 °F 93% 28.97 in 6.2 mi SSE 9.2 mph - N/A Rain Rain Showers